Change the Weather History Date:

Wednesday, October 10, 2012

  Actual Average (KGYR) Record (KGYR)
Temperature  
Mean Temperature 78 °F -  
Max Temperature 91 °F 89 °F 102 °F (1996)
Min Temperature 66 °F 61 °F 53 °F (1998)
Cooling Degree Days 14    
Growing Degree Days 28 (Base 50)    
Moisture  
Dew Point 49 °F    
Average Humidity 37    
Maximum Humidity 64    
Minimum Humidity 18    
Precipitation  
Precipitation 0.00 in - - ()
Sea Level Pressure  
Sea Level Pressure 29.88 in    
Wind  
Wind Speed 7 mph (SE)    
Max Wind Speed 18 mph    
Max Gust Speed 22 mph    
Visibility 10 miles    
Events      
Averages and records for this station are not official NWS values.
T = Trace of Precipitation, MM = Missing Value Source: NWS Daily Summary

Daily Weather History Graph

Daily Weather History Graph

Search for Another Location

Airport or City:

Trip Planner

Search our weather history database for the weather conditions in past years. The results will help you decide how hot, cold, wet, or windy it might be!

Date:

Astronomy

Oct. 10, 2012 Rise Set
Actual Time 6:31 AM MST 6:02 PM MST
Civil Twilight 6:07 AM MST 6:27 PM MST
Nautical Twilight 5:38 AM MST 6:56 PM MST
Astronomical Twilight 5:09 AM MST 7:25 PM MST
Moon 1:26 AM MST (10/10) 2:54 PM MST (10/10)
Length of Visible Light 12h 20m
Length of Day
11h 30m
Waning Crescent, 26% of the Moon is Illuminated
Oct 10
Waning Crescent
Oct 15
New
Oct 21
First Quarter
Oct 29
Full
Nov 6
Last Quarter

Hourly Weather History & Observations

Time (MST) Temp. Dew Point Humidity Pressure Visibility Wind Dir Wind Speed Gust Speed Precip Events Conditions
12:15 AM 73.4 °F 46.4 °F 38% 29.91 in 10.0 mi NNE 4.6 mph - N/A   Clear
12:35 AM 71.6 °F 46.4 °F 41% 29.92 in 10.0 mi NNE 6.9 mph - N/A   Clear
12:55 AM 71.6 °F 46.4 °F 41% 29.92 in 10.0 mi NNE 5.8 mph - N/A   Clear
1:15 AM 71.6 °F 48.2 °F 43% 29.92 in 10.0 mi NE 5.8 mph - N/A   Clear
1:35 AM 71.6 °F 50.0 °F 46% 29.92 in 10.0 mi NE 4.6 mph - N/A   Clear
1:55 AM 71.6 °F 51.8 °F 50% 29.92 in 10.0 mi Calm Calm - N/A   Clear
2:15 AM 69.8 °F 50.0 °F 49% 29.92 in 10.0 mi Calm Calm - N/A   Clear
2:35 AM 69.8 °F 50.0 °F 49% 29.92 in 10.0 mi Calm Calm - N/A   Clear
2:55 AM 68.0 °F 50.0 °F 52% 29.91 in 10.0 mi Calm Calm - N/A   Clear
3:15 AM 68.0 °F 51.8 °F 56% 29.91 in 10.0 mi NNE 3.5 mph - N/A   Clear
3:35 AM 68.0 °F 51.8 °F 56% 29.91 in 10.0 mi NNE 4.6 mph - N/A   Clear
3:55 AM 68.0 °F 53.6 °F 60% 29.91 in 10.0 mi NNE 5.8 mph - N/A   Clear
4:15 AM 68.0 °F 53.6 °F 60% 29.91 in 10.0 mi North 5.8 mph - N/A   Clear
4:35 AM 68.0 °F 53.6 °F 60% 29.92 in 10.0 mi NE 6.9 mph - N/A   Clear
4:55 AM 68.0 °F 53.6 °F 60% 29.92 in 10.0 mi ENE 5.8 mph - N/A   Clear
5:15 AM 68.0 °F 53.6 °F 60% 29.93 in 10.0 mi East 9.2 mph - N/A   Clear
5:35 AM 68.0 °F 51.8 °F 56% 29.93 in 10.0 mi East 8.1 mph - N/A   Clear
5:55 AM 66.2 °F 53.6 °F 64% 29.94 in 10.0 mi East 5.8 mph - N/A   Clear
6:35 AM 69.8 °F 51.8 °F 53% 29.94 in 10.0 mi ENE 6.9 mph - N/A   Clear
6:55 AM 69.8 °F 51.8 °F 53% 29.94 in 10.0 mi East 9.2 mph - N/A   Clear
7:15 AM 69.8 °F 53.6 °F 56% 29.94 in 10.0 mi East 9.2 mph - N/A   Clear
7:35 AM 71.6 °F 50.0 °F 46% 29.94 in 10.0 mi East 13.8 mph - N/A   Clear
7:55 AM 73.4 °F 51.8 °F 47% 29.95 in 10.0 mi East 13.8 mph - N/A   Clear
8:15 AM 75.2 °F 50.0 °F 41% 29.95 in 10.0 mi East 16.1 mph - N/A   Clear
8:35 AM 77.0 °F 50.0 °F 39% 29.95 in 10.0 mi East 18.4 mph - N/A   Clear
8:55 AM 77.0 °F 50.0 °F 39% 29.95 in 10.0 mi East 17.3 mph - N/A   Clear
9:15 AM 80.6 °F 50.0 °F 34% 29.95 in 10.0 mi East 17.3 mph 21.9 mph N/A   Clear
9:35 AM 80.6 °F 50.0 °F 34% 29.95 in 10.0 mi East 16.1 mph - N/A   Clear
9:55 AM 80.6 °F 50.0 °F 34% 29.95 in 10.0 mi East 16.1 mph 20.7 mph N/A   Clear
10:15 AM 82.4 °F 50.0 °F 32% 29.95 in 10.0 mi East 17.3 mph - N/A   Clear
10:35 AM 82.4 °F 51.8 °F 35% 29.94 in 10.0 mi East 16.1 mph - N/A   Clear
10:55 AM 84.2 °F 51.8 °F 33% 29.94 in 10.0 mi East 13.8 mph - N/A   Clear
11:15 AM 84.2 °F 51.8 °F 33% 29.93 in 10.0 mi ESE 12.7 mph - N/A   Clear
11:35 AM 86.0 °F 51.8 °F 31% 29.92 in 10.0 mi East 12.7 mph 18.4 mph N/A   Clear
11:55 AM 86.0 °F 50.0 °F 29% 29.91 in 10.0 mi East 10.4 mph 17.3 mph N/A   Clear
12:15 PM 86.0 °F 50.0 °F 29% 29.90 in 10.0 mi ENE 8.1 mph - N/A   Clear
12:35 PM 89.6 °F 48.2 °F 24% 29.89 in 10.0 mi SE 13.8 mph 20.7 mph N/A   Clear
12:55 PM 89.6 °F 48.2 °F 24% 29.88 in 10.0 mi South 9.2 mph - N/A   Clear
1:15 PM 89.6 °F 46.4 °F 22% 29.86 in 10.0 mi SSW 8.1 mph - N/A   Partly Cloudy
1:35 PM 89.6 °F 46.4 °F 22% 29.85 in 10.0 mi South 8.1 mph - N/A   Clear
1:55 PM 89.6 °F 46.4 °F 22% 29.84 in 10.0 mi South 11.5 mph 17.3 mph N/A   Clear
2:15 PM 89.6 °F 46.4 °F 22% 29.84 in 10.0 mi ESE 8.1 mph 16.1 mph N/A   Partly Cloudy
2:35 PM 89.6 °F 44.6 °F 21% 29.83 in 10.0 mi South 5.8 mph - N/A   Partly Cloudy
2:55 PM 91.4 °F 44.6 °F 20% 29.83 in 10.0 mi South 9.2 mph - N/A   Clear
3:15 PM 91.4 °F 42.8 °F 18% 29.82 in 10.0 mi South 6.9 mph - N/A   Clear
3:35 PM 91.4 °F 42.8 °F 18% 29.81 in 10.0 mi South 11.5 mph 16.1 mph N/A   Clear
3:55 PM 89.6 °F 44.6 °F 21% 29.81 in 10.0 mi South 6.9 mph - N/A   Clear
4:15 PM 89.6 °F 44.6 °F 21% 29.80 in 10.0 mi South 6.9 mph - N/A   Clear
4:35 PM 89.6 °F 44.6 °F 21% 29.80 in 10.0 mi SW 6.9 mph - N/A   Clear
4:55 PM 89.6 °F 44.6 °F 21% 29.80 in 10.0 mi SSW 8.1 mph - N/A   Clear
5:15 PM 87.8 °F 46.4 °F 24% 29.80 in 10.0 mi SSW 6.9 mph - N/A   Clear
5:35 PM 86.0 °F 46.4 °F 25% 29.80 in 10.0 mi SW 8.1 mph - N/A   Clear
5:55 PM 84.2 °F 46.4 °F 27% 29.79 in 10.0 mi SW 9.2 mph - N/A   Clear
6:15 PM 82.4 °F 46.4 °F 28% 29.80 in 10.0 mi SW 9.2 mph - N/A   Clear
6:35 PM 82.4 °F 46.4 °F 28% 29.80 in 10.0 mi SW 8.1 mph - N/A   Clear
6:55 PM 80.6 °F 46.4 °F 30% 29.81 in 10.0 mi SW 9.2 mph - N/A   Clear
7:15 PM 80.6 °F 46.4 °F 30% 29.81 in 10.0 mi SW 8.1 mph - N/A   Clear
7:35 PM 78.8 °F 46.4 °F 32% 29.82 in 10.0 mi SW 8.1 mph - N/A   Clear
7:55 PM 77.0 °F 46.4 °F 34% 29.82 in 10.0 mi SW 6.9 mph - N/A   Clear
8:15 PM 77.0 °F 44.6 °F 32% 29.83 in 10.0 mi SW 6.9 mph - N/A   Clear
8:35 PM 77.0 °F 44.6 °F 32% 29.83 in 10.0 mi WSW 8.1 mph - N/A   Clear
8:55 PM 77.0 °F 46.4 °F 34% 29.84 in 10.0 mi SW 9.2 mph - N/A   Clear
9:15 PM 77.0 °F 46.4 °F 34% 29.84 in 10.0 mi SW 8.1 mph - N/A   Clear
9:35 PM 77.0 °F 46.4 °F 34% 29.85 in 10.0 mi SW 8.1 mph - N/A   Clear
9:55 PM 75.2 °F 46.4 °F 36% 29.85 in 10.0 mi WSW 6.9 mph - N/A   Clear
10:15 PM 75.2 °F 48.2 °F 38% 29.85 in 10.0 mi SW 5.8 mph - N/A   Clear
10:35 PM 73.4 °F 51.8 °F 47% 29.85 in 10.0 mi SW 10.4 mph - N/A   Clear
11:35 PM 75.2 °F 51.8 °F 44% 29.85 in 10.0 mi Calm Calm - N/A   Clear
11:55 PM 73.4 °F 50.0 °F 44% 29.84 in 10.0 mi Calm Calm - N/A   Partly Cloudy